Location: Unspecified
(0.0000°N, 0.0000°E)
Time: 19:06:05
(UTC+00:00)

LEMUR 1 - Visible Passes

Search period start: 24 January 2022 00:00
Search period end: 03 February 2022 00:00
Orbit: 606 x 687 km, 97.7° (Epoch: 24 January)

Date Brightness Start Highest point End Pass type
(mag) Time Alt. Az. Time Alt. Az. Time Alt. Az.
24 Jan ? 05:29:33 10° ESE 05:32:03 15° ENE 05:34:34 10° NE visible
24 Jan ? 19:18:39 10° NW 19:21:22 16° WNW 19:24:03 10° WSW visible
26 Jan ? 18:31:23 10° N 18:35:49 69° WNW 18:40:10 10° SSW visible
27 Jan ? 18:57:22 10° NNW 19:01:13 29° WNW 19:05:00 10° SW visible
28 Jan ? 05:34:13 10° ESE 05:37:17 18° ENE 05:40:23 10° NE visible
28 Jan ? 19:24:35 10° NW 19:26:35 13° WNW 19:28:34 10° WSW visible
30 Jan ? 18:36:43 10° N 18:41:02 56° WNW 18:45:17 10° SSW visible
31 Jan ? 19:02:54 10° NNW 19:06:25 24° WNW 19:09:55 10° SW visible
01 Feb ? 05:39:01 10° SE 05:42:31 22° ENE 05:46:03 10° NNE visible
01 Feb ? 19:31:11 10° WNW 19:31:47 10° WNW 19:32:24 10° W visible
